When you browse on this site, cookies collect data to enhance your experience and personalize the content and advertising you see.
Visit our Privacy Policy to learn more. By continuing to use the site, you agree to this use of cookies and data.
  • en France
  • Liste des pays
  • À 7 jours
  • Température de l'eau
  • Carte satellitaire
  • Carte météo
  • Widgets météo
  • user-avatar
    Se connecter

    Météo par heure à Kalgoorlie

    Ce jour, 20 Mars, Mercredi

    Heure Température Précipitation Vent Pression Humidité
    00:00 +30°C° 0 mm 6 m/s 727 mmHg 37%
    01:00 +29°C° 0 mm 6 m/s 727 mmHg 38%
    02:00 +28°C° 0 mm 6 m/s 727 mmHg 42%
    03:00 +28°C° 0 mm 6 m/s 728 mmHg 43%
    04:00 +28°C° 0 mm 5 m/s 728 mmHg 44%
    05:00 +27°C° 0 mm 5 m/s 728 mmHg 45%
    06:00 +28°C° 0 mm 5 m/s 728 mmHg 43%
    07:00 +29°C° 0 mm 5 m/s 728 mmHg 40%
    08:00 +30°C° 0 mm 6 m/s 729 mmHg 38%
    09:00 +32°C° 0 mm 6 m/s 728 mmHg 34%
    10:00 +34°C° 0 mm 7 m/s 728 mmHg 30%
    11:00 +36°C° 0 mm 7 m/s 728 mmHg 26%
    12:00 +36°C° 0 mm 7 m/s 728 mmHg 26%
    13:00 +36°C° 0 mm 6 m/s 728 mmHg 26%
    14:00 +36°C° 0 mm 6 m/s 727 mmHg 25%
    15:00 +36°C° 0 mm 6 m/s 727 mmHg 27%
    16:00 +36°C° 0 mm 6 m/s 727 mmHg 28%
    17:00 +35°C° 0 mm 6 m/s 727 mmHg 29%
    18:00 +35°C° 0 mm 5 m/s 727 mmHg 31%
    19:00 +34°C° 0 mm 5 m/s 727 mmHg 33%
    20:00 +33°C° 0 mm 5 m/s 727 mmHg 34%
    21:00 +33°C° 0 mm 4 m/s 727 mmHg 35%
    22:00 +32°C° 0 mm 4 m/s 727 mmHg 36%
    23:00 +31°C° 0 mm 3 m/s 727 mmHg 37%

    Demain, 21 Mars, Jeudi

    Heure Température Précipitation Vent Pression Humidité
    00:00 +30°C° 0 mm 4 m/s 727 mmHg 36%
    01:00 +30°C° 0 mm 4 m/s 727 mmHg 36%
    02:00 +30°C° 0 mm 4 m/s 727 mmHg 35%
    03:00 +29°C° 0.5 mm 5 m/s 727 mmHg 40%
    04:00 +28°C° 0.5 mm 5 m/s 727 mmHg 44%
    05:00 +27°C° 0.5 mm 5 m/s 728 mmHg 49%
    06:00 +27°C° 0.9 mm 5 m/s 728 mmHg 51%
    07:00 +27°C° 0.9 mm 5 m/s 728 mmHg 53%
    08:00 +27°C° 0.9 mm 5 m/s 728 mmHg 55%
    09:00 +27°C° 1.6 mm 5 m/s 728 mmHg 57%
    10:00 +27°C° 1.6 mm 4 m/s 728 mmHg 59%
    11:00 +27°C° 1.6 mm 4 m/s 728 mmHg 62%
    12:00 +27°C° 0.4 mm 5 m/s 728 mmHg 60%
    13:00 +28°C° 0.4 mm 6 m/s 728 mmHg 58%
    14:00 +28°C° 0.4 mm 6 m/s 727 mmHg 56%
    15:00 +28°C° 0.4 mm 7 m/s 727 mmHg 58%
    16:00 +27°C° 0.4 mm 8 m/s 727 mmHg 61%
    17:00 +26°C° 0.4 mm 8 m/s 727 mmHg 63%
    18:00 +26°C° 0.1 mm 7 m/s 727 mmHg 60%
    19:00 +27°C° 0.1 mm 5 m/s 727 mmHg 57%
    20:00 +27°C° 0.1 mm 4 m/s 727 mmHg 54%
    21:00 +26°C° 0 mm 3 m/s 727 mmHg 57%
    22:00 +26°C° 0 mm 2 m/s 727 mmHg 60%
    23:00 +25°C° 0 mm 1 m/s 727 mmHg 63%

    Après-demain, 22 Mars, Vendredi

    Heure Température Précipitation Vent Pression Humidité
    00:00 +25°C° 0 mm 1 m/s 727 mmHg 63%
    01:00 +25°C° 0 mm 2 m/s 726 mmHg 63%
    02:00 +25°C° 0 mm 2 m/s 726 mmHg 62%
    03:00 +24°C° 0 mm 2 m/s 726 mmHg 65%
    04:00 +24°C° 0 mm 3 m/s 726 mmHg 67%
    05:00 +22°C° 0 mm 3 m/s 726 mmHg 70%
    06:00 +24°C° 0 mm 3 m/s 726 mmHg 65%
    07:00 +25°C° 0 mm 3 m/s 727 mmHg 60%
    08:00 +26°C° 0 mm 3 m/s 727 mmHg 55%
    09:00 +28°C° 0 mm 3 m/s 727 mmHg 50%
    10:00 +29°C° 0 mm 2 m/s 726 mmHg 44%
    11:00 +31°C° 0 mm 2 m/s 726 mmHg 38%
    12:00 +32°C° 0 mm 2 m/s 726 mmHg 35%
    13:00 +34°C° 0 mm 2 m/s 725 mmHg 32%
    14:00 +36°C° 0 mm 2 m/s 725 mmHg 29%
    15:00 +35°C° 0 mm 3 m/s 725 mmHg 30%
    16:00 +35°C° 0 mm 4 m/s 725 mmHg 31%
    17:00 +35°C° 0 mm 4 m/s 726 mmHg 32%
    18:00 +30°C° 0 mm 6 m/s 726 mmHg 46%
    19:00 +27°C° 0 mm 8 m/s 727 mmHg 61%
    20:00 +23°C° 0 mm 10 m/s 727 mmHg 75%
    21:00 +22°C° 1.1 mm 10 m/s 728 mmHg 76%
    22:00 +21°C° 1.1 mm 10 m/s 728 mmHg 76%
    23:00 +19°C° 1.1 mm 10 m/s 729 mmHg 77%

    23 Mars, Samedi

    Heure Température Précipitation Vent Pression Humidité
    00:00 +19°C° 0 mm 10 m/s 729 mmHg 77%
    01:00 +18°C° 0 mm 10 m/s 728 mmHg 77%
    02:00 +18°C° 0 mm 10 m/s 728 mmHg 76%
    03:00 +17°C° 0 mm 9 m/s 728 mmHg 74%
    04:00 +16°C° 0 mm 9 m/s 729 mmHg 72%
    05:00 +15°C° 0 mm 9 m/s 729 mmHg 71%
    06:00 +15°C° 0 mm 9 m/s 729 mmHg 69%
    07:00 +15°C° 0 mm 8 m/s 730 mmHg 68%
    08:00 +15°C° 0 mm 8 m/s 730 mmHg 67%
    09:00 +17°C° 0 mm 7 m/s 731 mmHg 62%
    10:00 +18°C° 0 mm 7 m/s 731 mmHg 57%
    11:00 +20°C° 0 mm 6 m/s 731 mmHg 53%
    12:00 +21°C° 0 mm 6 m/s 730 mmHg 50%
    13:00 +22°C° 0 mm 6 m/s 729 mmHg 47%
    14:00 +23°C° 0 mm 6 m/s 729 mmHg 44%
    15:00 +23°C° 0 mm 6 m/s 729 mmHg 44%
    16:00 +23°C° 0 mm 6 m/s 728 mmHg 44%
    17:00 +25°C° 0 mm 5 m/s 728 mmHg 44%
    18:00 +23°C° 0 mm 5 m/s 729 mmHg 45%
    19:00 +22°C° 0 mm 4 m/s 729 mmHg 47%
    20:00 +22°C° 0 mm 4 m/s 730 mmHg 48%
    21:00 +21°C° 0 mm 4 m/s 730 mmHg 49%
    22:00 +21°C° 0 mm 4 m/s 730 mmHg 50%
    23:00 +20°C° 0 mm 3 m/s 730 mmHg 51%

    24 Mars, Dimanche

    Heure Température Précipitation Vent Pression Humidité
    00:00 +20°C° 0 mm 4 m/s 729 mmHg 53%
    01:00 +19°C° 0 mm 4 m/s 729 mmHg 56%
    02:00 +18°C° 0 mm 4 m/s 729 mmHg 58%
    03:00 +16°C° 0 mm 5 m/s 729 mmHg 61%
    04:00 +16°C° 0 mm 5 m/s 729 mmHg 65%
    05:00 +15°C° 0 mm 5 m/s 729 mmHg 68%
    06:00 +15°C° 0 mm 5 m/s 730 mmHg 67%
    07:00 +15°C° 0 mm 5 m/s 730 mmHg 66%
    08:00 +16°C° 0 mm 5 m/s 731 mmHg 65%
    09:00 +17°C° 0 mm 5 m/s 730 mmHg 58%
    10:00 +20°C° 0 mm 5 m/s 730 mmHg 51%
    11:00 +22°C° 0 mm 4 m/s 730 mmHg 44%
    12:00 +23°C° 0 mm 5 m/s 730 mmHg 39%
    13:00 +25°C° 0 mm 5 m/s 729 mmHg 34%
    14:00 +26°C° 0 mm 5 m/s 729 mmHg 29%
    15:00 +26°C° 0 mm 5 m/s 729 mmHg 27%
    16:00 +26°C° 0 mm 5 m/s 728 mmHg 25%
    17:00 +26°C° 0 mm 5 m/s 728 mmHg 23%
    18:00 +24°C° 0 mm 6 m/s 729 mmHg 26%
    19:00 +23°C° 0 mm 6 m/s 730 mmHg 29%
    20:00 +22°C° 0 mm 6 m/s 730 mmHg 32%
    21:00 +21°C° 0 mm 7 m/s 730 mmHg 38%
    22:00 +20°C° 0 mm 8 m/s 731 mmHg 45%
    23:00 +18°C° 0 mm 9 m/s 731 mmHg 51%

    25 Mars, Lundi

    Heure Température Précipitation Vent Pression Humidité
    00:00 +17°C° 0 mm 8 m/s 731 mmHg 57%
    01:00 +16°C° 0 mm 8 m/s 731 mmHg 63%
    02:00 +16°C° 0 mm 8 m/s 731 mmHg 69%
    03:00 +15°C° 0 mm 8 m/s 731 mmHg 70%
    04:00 +15°C° 0 mm 8 m/s 732 mmHg 72%
    05:00 +14°C° 0 mm 7 m/s 732 mmHg 74%
    06:00 +14°C° 0 mm 7 m/s 732 mmHg 73%
    07:00 +15°C° 0 mm 8 m/s 733 mmHg 71%
    08:00 +15°C° 0 mm 8 m/s 733 mmHg 70%
    09:00 +17°C° 0 mm 8 m/s 733 mmHg 63%
    10:00 +18°C° 0 mm 8 m/s 733 mmHg 56%
    11:00 +21°C° 0 mm 8 m/s 733 mmHg 49%
    12:00 +22°C° 0 mm 8 m/s 732 mmHg 43%
    13:00 +24°C° 0 mm 8 m/s 731 mmHg 38%
    14:00 +26°C° 0 mm 8 m/s 731 mmHg 32%
    15:00 +26°C° 0 mm 8 m/s 731 mmHg 32%
    16:00 +24°C° 0 mm 8 m/s 731 mmHg 32%
    17:00 +24°C° 0 mm 8 m/s 731 mmHg 32%
    18:00 +23°C° 0 mm 9 m/s 731 mmHg 34%
    19:00 +22°C° 0 mm 9 m/s 732 mmHg 36%
    20:00 +21°C° 0 mm 9 m/s 732 mmHg 38%
    21:00 +19°C° 0 mm 9 m/s 732 mmHg 42%
    22:00 +18°C° 0 mm 10 m/s 732 mmHg 46%
    23:00 +17°C° 0 mm 10 m/s 732 mmHg 50%
    Voir plus